Location: Plymouth Junction
(43.2275°N, 93.1308°W)
Time: 03:10:33
(UTC+00:00)

Envisat - Pass Details

Date: 14 October 2024
Orbit: 762 x 763 km, 98.3° (Epoch: 04 November)

Event Time Altitude Azimuth Distance (km) Brightness Sun altitude
Rises 10:49:58 0° 357° (N) 3,236 6.3 -18.2°
Reaches altitude 10° 10:53:02 10° 338° (NNW) 2,304 5.3 -17.6°
Enters shadow 10:55:04 16° 315° (NW) 1,933 4.7 -17.3°
